Tracking 19247 objects as of 24-Sep-2018
HD Live streaming from Space Station
objects crossing your sky now

EKRAN 10

Track EKRAN 10 now!
EKRAN 10 is classified as:


NORAD ID: 13878
Int'l Code: 1983-016A
Perigee: 37,172.4 km
Apogee: 37,487.7 km
Inclination: 15.7 °
Period: 1,515.3 minutes
Semi major axis: 43701 km
RCS: 6.5767 m2 (large)
Launch date: March 12, 1983
Source: Commonwealth of Independent States (former USSR) (CIS)
Launch site: TYURATAM MISSILE AND SPACE COMPLEX (TTMTR)
aabbcc
Your satellite tracking list
Your tracking list is empty




NASA's NSSDC Master Catalog

Two Line Element Set (TLE):
1 13878U 83016A   18266.40604977 -.00000143 +00000-0 +00000-0 0  9994
2 13878 015.7437 334.9750 0036070 318.2420 033.7556 00.95030925092332
Source of the keplerian elements: AFSPC